Weather in Fokino

Russia / Nizhny Novgorod Oblast'     56°09′53″N   45°49′35″E
temp.,
°C
wind,
m/s
gust,
m/s
humid.,
%
clouds,
%
prec.,
mm/h
press.,
hPa
HPBL,
m
18 april, sun
sun1800:00+4ne311790 0.0 1024269
03:00+2ene28890 0.0 1024171
06:00+3ne27850 0.0 1024181
09:00+9ene48560 0.0 1023659
12:00+13ene56425 0.0 10231688
15:00+13ene56439 0.0 10231872
18:00+8ene610745 0.0 1025715
21:00+4ene5127647 0.0 1027662
19 april, mon
mon1900:00+3ene5116996 0.0 1027517
03:00+2ene41170100 0.0 1028497
06:00+1ene51274100 0.0 1028608
09:00+4e61050100 0.0 1029885
12:00+7e6936100 0.0 10291535
15:00+8e6932100 0.0 10291712
18:00+6e51037100 0.0 10291379
21:00+4e5124499 0.0 1030699
20 april, tue
tue2000:00+2e5145134 0.0 1030581
03:000e413585 0.0 1030416
06:000e513565 0.0 1030491
09:00+6ese610425 0.0 1030900
12:00+9ese69312 0.0 10301568
15:00+10ese69290 0.0 10281586
18:00+8ese6113722 0.0 10261158
21:00+5ese51444100 0.0 1026663
21 april, wed
wed2100:00+4ese6154699 0.0 1024817
03:00+4ese71647100 0.0 1022900
06:00+3se81753100 0.1 1020966
09:00+1se81984100 2.2 1019934
12:00+1se71893100 4.1 1018845
15:00+2se71589100 5.6 1017901
18:00+3se71590100 0.2 1016813
21:00+3sse71592100 0.3 1017790
22 april, thu
thu2200:00+3s61394100 0.2 1018647
03:00+4s41096100 0.2 1019398
06:00+4s3995100 0.0 1020346
09:00+8s51075100 0.1 1021695
12:00+11sw5854100 0.1 10211992
15:00+12s576188 0.4 10221239
18:00+10sse3775100 0.4 1023216
21:00+6sse269087 0.4 102398